Location: Agadir Mansour Mhndou
(31.2424°N, 8.7730°W)
Time: 19:29:43
(UTC+00:00)

SL-16 R/B - Pass Details

Date: 16 October 2021
Orbit: 842 x 846 km, 71.0° (Epoch: 08 December)

Event Time Altitude Azimuth Distance (km) Brightness Sun altitude
Rises 19:40:27 0° 193° (SSW) 3,382 5.5 -21.8°
Reaches altitude 10° 19:42:53 10° 191° (S) 2,450 4.7 -22.3°
Maximum altitude 19:48:29 72° 108° (ESE) 885 2.0 -23.5°
Enters shadow 19:50:51 36° 33° (NNE) 1,317 2.9 -24.0°
